Year,Month,Day,Hour,Minute,Value (Times are PST for temperature in C)
2006,06,27,00,00,19.30
2006,06,27,00,01,19.30
2006,06,27,00,02,19.30
2006,06,27,00,03,19.30
2006,06,27,00,04,19.20
2006,06,27,00,05,19.20
2006,06,27,00,06,19.20
2006,06,27,00,07,19.20
2006,06,27,00,08,19.20
2006,06,27,00,09,19.20
2006,06,27,00,10,19.10
2006,06,27,00,11,19.10
2006,06,27,00,12,19.10
2006,06,27,00,13,19.10
2006,06,27,00,14,19.10
2006,06,27,00,15,19.10
2006,06,27,00,16,18.90
2006,06,27,00,17,18.90
2006,06,27,00,18,18.90
2006,06,27,00,19,18.90
2006,06,27,00,20,18.90
2006,06,27,00,21,18.90
2006,06,27,00,22,18.90
2006,06,27,00,23,18.90
2006,06,27,00,24,18.90
2006,06,27,00,25,18.80
2006,06,27,00,26,18.80
2006,06,27,00,27,18.80
2006,06,27,00,28,18.70
2006,06,27,00,29,18.70
2006,06,27,00,30,18.70
2006,06,27,00,31,18.70
2006,06,27,00,32,18.70
2006,06,27,00,33,18.70
2006,06,27,00,34,18.60
2006,06,27,00,35,18.60
2006,06,27,00,36,18.60
2006,06,27,00,37,18.60
2006,06,27,00,38,18.60
2006,06,27,00,39,18.60
2006,06,27,00,40,18.60
2006,06,27,00,41,18.60
2006,06,27,00,42,18.70
2006,06,27,00,43,18.70
2006,06,27,00,44,18.60
2006,06,27,00,45,18.60
2006,06,27,00,46,18.60
2006,06,27,00,47,18.50
2006,06,27,00,48,18.50
2006,06,27,00,49,18.50
2006,06,27,00,50,18.40
2006,06,27,00,51,18.40
2006,06,27,00,52,18.30
2006,06,27,00,53,18.30
2006,06,27,00,54,18.30
2006,06,27,00,55,18.20
2006,06,27,00,56,18.20
2006,06,27,00,57,18.20
2006,06,27,00,58,18.20
2006,06,27,00,59,18.10
2006,06,27,01,00,18.10
2006,06,27,01,01,18.10
2006,06,27,01,02,18.10
2006,06,27,01,03,18.00
2006,06,27,01,04,17.90
2006,06,27,01,05,17.90
2006,06,27,01,06,17.90
2006,06,27,01,07,17.90
2006,06,27,01,08,17.90
2006,06,27,01,09,17.90
2006,06,27,01,10,17.90
2006,06,27,01,11,17.90
2006,06,27,01,12,17.90
2006,06,27,01,13,17.90
2006,06,27,01,14,17.90
2006,06,27,01,15,17.90
2006,06,27,01,16,17.80
2006,06,27,01,17,17.80
2006,06,27,01,18,17.80
2006,06,27,01,19,17.80
2006,06,27,01,20,17.80
2006,06,27,01,21,17.80
2006,06,27,01,22,17.80
2006,06,27,01,23,17.70
2006,06,27,01,24,17.70
2006,06,27,01,25,17.70
2006,06,27,01,26,17.70
2006,06,27,01,27,17.70
2006,06,27,01,28,17.70
2006,06,27,01,29,17.70
2006,06,27,01,30,17.70
2006,06,27,01,31,17.70
2006,06,27,01,32,17.70
2006,06,27,01,33,17.70
2006,06,27,01,34,17.70
2006,06,27,01,35,17.70
2006,06,27,01,36,17.70
2006,06,27,01,37,17.70
2006,06,27,01,38,17.60
2006,06,27,01,39,17.60
2006,06,27,01,40,17.60
2006,06,27,01,41,17.60
2006,06,27,01,42,17.60
2006,06,27,01,43,17.60
2006,06,27,01,44,17.60
2006,06,27,01,45,17.60
2006,06,27,01,46,17.60
2006,06,27,01,47,17.60
2006,06,27,01,48,17.60
2006,06,27,01,49,17.50
2006,06,27,01,50,17.50
2006,06,27,01,51,17.50
2006,06,27,01,52,17.50
2006,06,27,01,53,17.50
2006,06,27,01,54,17.50
2006,06,27,01,55,17.50
2006,06,27,01,56,17.40
2006,06,27,01,57,17.40
2006,06,27,01,58,17.30
2006,06,27,01,59,17.30
2006,06,27,02,00,17.30
2006,06,27,02,01,17.20
2006,06,27,02,02,17.20
2006,06,27,02,03,17.10
2006,06,27,02,04,17.10
2006,06,27,02,05,17.10
2006,06,27,02,06,17.10
2006,06,27,02,07,17.00
2006,06,27,02,08,16.90
2006,06,27,02,09,16.90
2006,06,27,02,10,16.90
2006,06,27,02,11,16.80
2006,06,27,02,12,16.70
2006,06,27,02,13,16.70
2006,06,27,02,14,16.70
2006,06,27,02,15,16.60
2006,06,27,02,16,16.50
2006,06,27,02,17,16.40
2006,06,27,02,18,16.40
2006,06,27,02,19,16.40
2006,06,27,02,20,16.30
2006,06,27,02,21,16.20
2006,06,27,02,22,16.10
2006,06,27,02,23,16.10
2006,06,27,02,24,16.10
2006,06,27,02,25,16.00
2006,06,27,02,26,15.90
2006,06,27,02,27,15.80
2006,06,27,02,28,15.80
2006,06,27,02,29,15.80
2006,06,27,02,30,15.70
2006,06,27,02,31,15.70
2006,06,27,02,32,15.60
2006,06,27,02,33,15.60
2006,06,27,02,34,15.50
2006,06,27,02,35,15.50
2006,06,27,02,36,15.40
2006,06,27,02,37,15.40
2006,06,27,02,38,15.30
2006,06,27,02,39,15.30
2006,06,27,02,40,15.30
2006,06,27,02,41,15.30
2006,06,27,02,42,15.30
2006,06,27,02,43,15.30
2006,06,27,02,44,15.30
2006,06,27,02,45,15.20
2006,06,27,02,46,15.20
2006,06,27,02,47,15.10
2006,06,27,02,48,15.10
2006,06,27,02,49,15.10
2006,06,27,02,50,15.10
2006,06,27,02,51,15.10
2006,06,27,02,52,15.20
2006,06,27,02,53,15.20
2006,06,27,02,54,15.20
2006,06,27,02,55,15.20
2006,06,27,02,56,15.20
2006,06,27,02,57,15.20
2006,06,27,02,58,15.20
2006,06,27,02,59,15.20
2006,06,27,03,00,15.20
2006,06,27,03,01,15.20
2006,06,27,03,02,15.20
2006,06,27,03,03,15.20
2006,06,27,03,04,15.20
2006,06,27,03,05,15.20
2006,06,27,03,06,15.20
2006,06,27,03,07,15.20
2006,06,27,03,08,15.20
2006,06,27,03,09,15.30
2006,06,27,03,10,15.30
2006,06,27,03,11,15.30
2006,06,27,03,12,15.30
2006,06,27,03,13,15.30
2006,06,27,03,14,15.30
2006,06,27,03,15,15.30
2006,06,27,03,16,15.30
2006,06,27,03,17,15.40
2006,06,27,03,18,15.40
2006,06,27,03,19,15.40
2006,06,27,03,20,15.40
2006,06,27,03,21,15.40
2006,06,27,03,22,15.40
2006,06,27,03,23,15.40
2006,06,27,03,24,15.40
2006,06,27,03,25,15.50
2006,06,27,03,26,15.50
2006,06,27,03,27,15.50
2006,06,27,03,28,15.50
2006,06,27,03,29,15.50
2006,06,27,03,30,15.60
2006,06,27,03,31,15.60
2006,06,27,03,32,15.60
2006,06,27,03,33,15.70
2006,06,27,03,34,15.70
2006,06,27,03,35,15.70
2006,06,27,03,36,15.80
2006,06,27,03,37,15.80
2006,06,27,03,38,15.80
2006,06,27,03,39,15.80
2006,06,27,03,40,15.80
2006,06,27,03,41,15.80
2006,06,27,03,42,15.80
2006,06,27,03,43,15.80
2006,06,27,03,44,15.80
2006,06,27,03,45,15.80
2006,06,27,03,46,15.80
2006,06,27,03,47,15.80
2006,06,27,03,48,15.80
2006,06,27,03,49,15.80
2006,06,27,03,50,15.80
2006,06,27,03,51,15.80
2006,06,27,03,52,15.70
2006,06,27,03,53,15.60
2006,06,27,03,54,15.50
2006,06,27,03,55,15.50
2006,06,27,03,56,15.40
2006,06,27,03,57,15.30
2006,06,27,03,58,15.30
2006,06,27,03,59,15.20
2006,06,27,04,00,15.20
2006,06,27,04,01,15.10
2006,06,27,04,02,15.10
2006,06,27,04,03,15.10
2006,06,27,04,04,15.10
2006,06,27,04,05,15.00
2006,06,27,04,06,15.00
2006,06,27,04,07,15.00
2006,06,27,04,08,15.00
2006,06,27,04,09,15.00
2006,06,27,04,10,15.00
2006,06,27,04,11,15.00
2006,06,27,04,12,14.90
2006,06,27,04,13,14.90
2006,06,27,04,14,14.90
2006,06,27,04,15,14.80
2006,06,27,04,16,14.80
2006,06,27,04,17,14.80
2006,06,27,04,18,14.80
2006,06,27,04,19,14.80
2006,06,27,04,20,14.80
2006,06,27,04,21,14.80
2006,06,27,04,22,14.90
2006,06,27,04,23,14.90
2006,06,27,04,24,14.90
2006,06,27,04,25,14.80
2006,06,27,04,26,14.80
2006,06,27,04,27,14.80
2006,06,27,04,28,14.80
2006,06,27,04,29,14.80
2006,06,27,04,30,14.80
2006,06,27,04,31,14.80
2006,06,27,04,32,14.80
2006,06,27,04,33,14.70
2006,06,27,04,34,14.70
2006,06,27,04,35,14.70
2006,06,27,04,36,14.70
2006,06,27,04,37,14.70
2006,06,27,04,38,14.60
2006,06,27,04,39,14.60
2006,06,27,04,40,14.50
2006,06,27,04,41,14.50
2006,06,27,04,42,14.40
2006,06,27,04,43,14.40
2006,06,27,04,44,14.30
2006,06,27,04,45,14.30
2006,06,27,04,46,14.30
2006,06,27,04,47,14.20
2006,06,27,04,48,14.20
2006,06,27,04,49,14.20
2006,06,27,04,50,14.20
2006,06,27,04,51,14.10
2006,06,27,04,52,14.10
2006,06,27,04,53,14.10
2006,06,27,04,54,14.10
2006,06,27,04,55,14.00
2006,06,27,04,56,14.00
2006,06,27,04,57,14.00
2006,06,27,04,58,14.00
2006,06,27,04,59,14.00
2006,06,27,05,00,14.00
2006,06,27,05,01,14.00
2006,06,27,05,02,14.10
2006,06,27,05,03,14.10
2006,06,27,05,04,14.10
2006,06,27,05,05,14.20
2006,06,27,05,06,14.20
2006,06,27,05,07,14.20
2006,06,27,05,08,14.30
2006,06,27,05,09,14.30
2006,06,27,05,10,14.30
2006,06,27,05,11,14.30
2006,06,27,05,12,14.20
2006,06,27,05,13,14.20
2006,06,27,05,14,14.20
2006,06,27,05,15,14.20
2006,06,27,05,16,14.20
2006,06,27,05,17,14.20
2006,06,27,05,18,14.20
2006,06,27,05,19,14.20
2006,06,27,05,20,14.20
2006,06,27,05,21,14.20
2006,06,27,05,22,14.20
2006,06,27,05,23,14.20
2006,06,27,05,24,14.20
2006,06,27,05,25,14.20
2006,06,27,05,26,14.30
2006,06,27,05,27,14.20
2006,06,27,05,28,14.20
2006,06,27,05,29,14.20
2006,06,27,05,30,14.20
2006,06,27,05,31,14.20
2006,06,27,05,32,14.20
2006,06,27,05,33,14.30
2006,06,27,05,34,14.30
2006,06,27,05,35,14.30
2006,06,27,05,36,14.30
2006,06,27,05,37,14.30
2006,06,27,05,38,14.30
2006,06,27,05,39,14.30
2006,06,27,05,40,14.30
2006,06,27,05,41,14.40
2006,06,27,05,42,14.40
2006,06,27,05,43,14.50
2006,06,27,05,44,14.50
2006,06,27,05,45,14.50
2006,06,27,05,46,14.60
2006,06,27,05,47,14.60
2006,06,27,05,48,14.60
2006,06,27,05,49,14.60
2006,06,27,05,50,14.60
2006,06,27,05,51,14.60
2006,06,27,05,52,14.70
2006,06,27,05,53,14.70
2006,06,27,05,54,14.70
2006,06,27,05,55,14.70
2006,06,27,05,56,14.80
2006,06,27,05,57,14.80
2006,06,27,05,58,14.80
2006,06,27,05,59,14.80
2006,06,27,06,00,14.80
2006,06,27,06,01,14.80
2006,06,27,06,02,14.80
2006,06,27,06,03,14.80
2006,06,27,06,04,14.90
2006,06,27,06,05,14.90
2006,06,27,06,06,14.90
2006,06,27,06,07,14.90
2006,06,27,06,08,15.00
2006,06,27,06,09,15.00
2006,06,27,06,10,15.00
2006,06,27,06,11,15.00
2006,06,27,06,12,15.10
2006,06,27,06,13,15.10
2006,06,27,06,14,15.20
2006,06,27,06,15,15.20
2006,06,27,06,16,15.30
2006,06,27,06,17,15.30
2006,06,27,06,18,15.30
2006,06,27,06,19,15.30
2006,06,27,06,20,15.30
2006,06,27,06,21,15.30
2006,06,27,06,22,15.30
2006,06,27,06,23,15.30
2006,06,27,06,24,15.30
2006,06,27,06,25,15.40
2006,06,27,06,26,15.40
2006,06,27,06,27,15.40
2006,06,27,06,28,15.40
2006,06,27,06,29,15.40
2006,06,27,06,30,15.40
2006,06,27,06,31,15.40
2006,06,27,06,32,15.30
2006,06,27,06,33,15.30
2006,06,27,06,34,15.30
2006,06,27,06,35,15.30
2006,06,27,06,36,15.30
2006,06,27,06,37,15.30
2006,06,27,06,38,15.20
2006,06,27,06,39,15.20
2006,06,27,06,40,15.20
2006,06,27,06,41,15.10
2006,06,27,06,42,15.10
2006,06,27,06,43,15.10
2006,06,27,06,44,15.10
2006,06,27,06,45,15.10
2006,06,27,06,46,15.10
2006,06,27,06,47,15.00
2006,06,27,06,48,14.80
2006,06,27,06,49,14.80
2006,06,27,06,50,14.80
2006,06,27,06,51,14.70
2006,06,27,06,52,14.60
2006,06,27,06,53,14.60
2006,06,27,06,54,14.60
2006,06,27,06,55,14.60
2006,06,27,06,56,14.60
2006,06,27,06,57,14.60
2006,06,27,06,58,14.70
2006,06,27,06,59,14.80
2006,06,27,07,00,14.80
2006,06,27,07,01,14.90
2006,06,27,07,02,15.00
2006,06,27,07,03,15.00
2006,06,27,07,04,15.30
2006,06,27,07,05,15.40
2006,06,27,07,06,15.50
2006,06,27,07,07,15.70
2006,06,27,07,08,15.80
2006,06,27,07,09,16.00
2006,06,27,07,10,16.10
2006,06,27,07,11,16.20
2006,06,27,07,12,16.40
2006,06,27,07,13,16.50
2006,06,27,07,14,16.60
2006,06,27,07,15,16.70
2006,06,27,07,16,16.80
2006,06,27,07,17,16.90
2006,06,27,07,18,17.00
2006,06,27,07,19,17.10
2006,06,27,07,20,17.20
2006,06,27,07,21,17.30
2006,06,27,07,22,17.30
2006,06,27,07,23,17.30
2006,06,27,07,24,17.20
2006,06,27,07,25,17.20
2006,06,27,07,26,17.20
2006,06,27,07,27,17.20
2006,06,27,07,28,17.20
2006,06,27,07,29,17.30
2006,06,27,07,30,17.30
2006,06,27,07,31,17.30
2006,06,27,07,32,17.30
2006,06,27,07,33,17.40
2006,06,27,07,34,17.50
2006,06,27,07,35,17.50
2006,06,27,07,36,17.60
2006,06,27,07,37,17.70
2006,06,27,07,38,17.80
2006,06,27,07,39,18.00
2006,06,27,07,40,18.10
2006,06,27,07,41,18.20
2006,06,27,07,42,18.30
2006,06,27,07,43,18.30
2006,06,27,07,44,18.40
2006,06,27,07,45,18.40
2006,06,27,07,46,18.40
2006,06,27,07,47,18.30
2006,06,27,07,48,18.20
2006,06,27,07,49,18.20
2006,06,27,07,50,18.10
2006,06,27,07,51,17.90
2006,06,27,07,52,17.70
2006,06,27,07,53,17.50
2006,06,27,07,54,17.30
2006,06,27,07,55,17.20
2006,06,27,07,56,17.00
2006,06,27,07,57,17.00
2006,06,27,07,58,17.10
2006,06,27,07,59,17.10
2006,06,27,08,00,17.10
2006,06,27,08,01,17.20
2006,06,27,08,02,17.30
2006,06,27,08,03,17.40
2006,06,27,08,04,17.50
2006,06,27,08,05,17.60
2006,06,27,08,06,17.70
2006,06,27,08,07,17.80
2006,06,27,08,08,17.90
2006,06,27,08,09,18.00
2006,06,27,08,10,18.20
2006,06,27,08,11,18.30
2006,06,27,08,12,18.40
2006,06,27,08,13,18.50
2006,06,27,08,14,18.60
2006,06,27,08,15,18.70
2006,06,27,08,16,18.80
2006,06,27,08,17,18.90
2006,06,27,08,18,18.90
2006,06,27,08,19,18.90
2006,06,27,08,20,19.10
2006,06,27,08,21,19.20
2006,06,27,08,22,19.30
2006,06,27,08,23,19.40
2006,06,27,08,24,19.40
2006,06,27,08,25,19.50
2006,06,27,08,26,19.70
2006,06,27,08,27,19.80
2006,06,27,08,28,19.90
2006,06,27,08,29,20.00
2006,06,27,08,30,20.10
2006,06,27,08,31,20.20
2006,06,27,08,32,20.20
2006,06,27,08,33,20.30
2006,06,27,08,34,20.40
2006,06,27,08,35,20.50
2006,06,27,08,36,20.60
2006,06,27,08,37,20.60
2006,06,27,08,38,20.70
2006,06,27,08,39,20.80
2006,06,27,08,40,20.90
2006,06,27,08,41,21.00
2006,06,27,08,42,21.00
2006,06,27,08,43,21.10
2006,06,27,08,44,21.20
2006,06,27,08,45,21.20
2006,06,27,08,46,21.20
2006,06,27,08,47,21.20
2006,06,27,08,48,21.30
2006,06,27,08,49,21.30
2006,06,27,08,50,21.30
2006,06,27,08,51,21.30
2006,06,27,08,52,21.30
2006,06,27,08,53,21.30
2006,06,27,08,54,21.20
2006,06,27,08,55,21.20
2006,06,27,08,56,21.20
2006,06,27,08,57,21.10
2006,06,27,08,58,21.10
2006,06,27,08,59,21.10
2006,06,27,09,00,21.10
2006,06,27,09,01,21.10
2006,06,27,09,02,21.10
2006,06,27,09,03,21.10
2006,06,27,09,04,21.10
2006,06,27,09,05,21.10
2006,06,27,09,06,21.10
2006,06,27,09,07,21.10
2006,06,27,09,08,21.10
2006,06,27,09,09,21.10
2006,06,27,09,10,21.10
2006,06,27,09,11,21.10
2006,06,27,09,12,21.00
2006,06,27,09,13,20.90
2006,06,27,09,14,21.00
2006,06,27,09,15,21.00
2006,06,27,09,16,21.00
2006,06,27,09,17,21.00
2006,06,27,09,18,21.00
2006,06,27,09,19,21.00
2006,06,27,09,20,21.00
2006,06,27,09,21,21.00
2006,06,27,09,22,21.00
2006,06,27,09,23,20.90
2006,06,27,09,24,20.90
2006,06,27,09,25,20.80
2006,06,27,09,26,20.80
2006,06,27,09,27,20.80
2006,06,27,09,28,20.80
2006,06,27,09,29,20.80
2006,06,27,09,30,20.90
2006,06,27,09,31,21.00
2006,06,27,09,32,21.10
2006,06,27,09,33,21.10
2006,06,27,09,34,21.20
2006,06,27,09,35,21.30
2006,06,27,09,36,21.40
2006,06,27,09,37,21.40
2006,06,27,09,38,21.60
2006,06,27,09,39,21.50
2006,06,27,09,40,21.60
2006,06,27,09,41,21.60
2006,06,27,09,42,21.60
2006,06,27,09,43,21.60
2006,06,27,09,44,21.60
2006,06,27,09,45,21.60
2006,06,27,09,46,21.60
2006,06,27,09,47,21.60
2006,06,27,09,48,21.70
2006,06,27,09,49,21.90
2006,06,27,09,50,22.00
2006,06,27,09,51,22.10
2006,06,27,09,52,22.20
2006,06,27,09,53,22.30
2006,06,27,09,54,22.40
2006,06,27,09,55,22.50
2006,06,27,09,56,22.50
2006,06,27,09,57,22.50
2006,06,27,09,58,22.50
2006,06,27,09,59,22.60
2006,06,27,10,00,22.60
2006,06,27,10,01,22.70
2006,06,27,10,02,22.80
2006,06,27,10,03,22.90
2006,06,27,10,04,22.90
2006,06,27,10,05,22.90
2006,06,27,10,06,22.90
2006,06,27,10,07,23.10
2006,06,27,10,08,23.10
2006,06,27,10,09,23.20
2006,06,27,10,10,23.20
2006,06,27,10,11,23.20
2006,06,27,10,12,23.30
2006,06,27,10,13,23.30
2006,06,27,10,14,23.30
2006,06,27,10,15,23.30
2006,06,27,10,16,23.50
2006,06,27,10,17,23.60
2006,06,27,10,18,23.70
2006,06,27,10,19,23.70
2006,06,27,10,20,23.70
2006,06,27,10,21,23.70
2006,06,27,10,22,23.70
2006,06,27,10,23,23.70
2006,06,27,10,24,23.70
2006,06,27,10,25,23.70
2006,06,27,10,26,23.70
2006,06,27,10,27,23.70
2006,06,27,10,28,23.70
2006,06,27,10,29,23.60
2006,06,27,10,30,23.60
2006,06,27,10,31,23.70
2006,06,27,10,32,23.70
2006,06,27,10,33,23.60
2006,06,27,10,34,23.60
2006,06,27,10,35,23.60
2006,06,27,10,36,23.40
2006,06,27,10,37,23.30
2006,06,27,10,38,23.30
2006,06,27,10,39,23.30
2006,06,27,10,40,23.30
2006,06,27,10,41,23.30
2006,06,27,10,42,23.30
2006,06,27,10,43,23.30
2006,06,27,10,44,23.30
2006,06,27,10,45,23.30
2006,06,27,10,46,23.30
2006,06,27,10,47,23.30
2006,06,27,10,48,23.30
2006,06,27,10,49,23.30
2006,06,27,10,50,23.30
2006,06,27,10,51,23.40
2006,06,27,10,52,23.40
2006,06,27,10,53,23.40
2006,06,27,10,54,23.40
2006,06,27,10,55,23.30
2006,06,27,10,56,23.20
2006,06,27,10,57,23.10
2006,06,27,10,58,23.10
2006,06,27,10,59,23.00
2006,06,27,11,00,22.90
2006,06,27,11,01,22.80
2006,06,27,11,02,22.90
2006,06,27,11,03,23.00
2006,06,27,11,04,23.10
2006,06,27,11,05,23.20
2006,06,27,11,06,23.30
2006,06,27,11,07,23.50
2006,06,27,11,08,23.70
2006,06,27,11,09,23.70
2006,06,27,11,10,23.70
2006,06,27,11,11,23.70
2006,06,27,11,12,23.70
2006,06,27,11,13,23.70
2006,06,27,11,14,23.60
2006,06,27,11,15,23.50
2006,06,27,11,16,23.40
2006,06,27,11,17,23.30
2006,06,27,11,18,23.30
2006,06,27,11,19,23.30
2006,06,27,11,20,23.40
2006,06,27,11,21,23.60
2006,06,27,11,22,23.60
2006,06,27,11,23,23.70
2006,06,27,11,24,23.80
2006,06,27,11,25,23.80
2006,06,27,11,26,23.80
2006,06,27,11,27,23.90
2006,06,27,11,28,24.00
2006,06,27,11,29,24.10
2006,06,27,11,30,24.20
2006,06,27,11,31,24.30
2006,06,27,11,32,24.40
2006,06,27,11,33,24.30
2006,06,27,11,34,24.40
2006,06,27,11,35,24.40
2006,06,27,11,36,24.40
2006,06,27,11,37,24.50
2006,06,27,11,38,24.40
2006,06,27,11,39,24.40
2006,06,27,11,40,24.30
2006,06,27,11,41,24.30
2006,06,27,11,42,24.20
2006,06,27,11,43,24.30
2006,06,27,11,44,24.40
2006,06,27,11,45,24.40
2006,06,27,11,46,24.50
2006,06,27,11,47,24.50
2006,06,27,11,48,24.40
2006,06,27,11,49,24.40
2006,06,27,11,50,24.30
2006,06,27,11,51,24.20
2006,06,27,11,52,24.10
2006,06,27,11,53,24.00
2006,06,27,11,54,23.90
2006,06,27,11,55,23.90
2006,06,27,11,56,24.00
2006,06,27,11,57,24.10
2006,06,27,11,58,23.90
2006,06,27,11,59,23.70
2006,06,27,12,00,23.70
2006,06,27,12,01,23.60
2006,06,27,12,02,23.60
2006,06,27,12,03,23.60
2006,06,27,12,04,23.70
2006,06,27,12,05,23.70
2006,06,27,12,06,23.70
2006,06,27,12,07,23.70
2006,06,27,12,08,23.70
2006,06,27,12,09,23.70
2006,06,27,12,10,23.80
2006,06,27,12,11,23.90
2006,06,27,12,12,24.10
2006,06,27,12,13,24.10
2006,06,27,12,14,24.10
2006,06,27,12,15,24.10
2006,06,27,12,16,24.20
2006,06,27,12,17,24.40
2006,06,27,12,18,24.50
2006,06,27,12,19,24.70
2006,06,27,12,20,24.70
2006,06,27,12,21,24.50
2006,06,27,12,22,24.40
2006,06,27,12,23,24.30
2006,06,27,12,24,24.20
2006,06,27,12,25,24.20
2006,06,27,12,26,24.20
2006,06,27,12,27,24.10
2006,06,27,12,28,24.00
2006,06,27,12,29,23.90
2006,06,27,12,30,23.90
2006,06,27,12,31,24.00
2006,06,27,12,32,24.10
2006,06,27,12,33,24.20
2006,06,27,12,34,24.20
2006,06,27,12,35,24.30
2006,06,27,12,36,24.10
2006,06,27,12,37,24.10
2006,06,27,12,38,24.00
2006,06,27,12,39,23.90
2006,06,27,12,40,23.90
2006,06,27,12,41,23.80
2006,06,27,12,42,23.70
2006,06,27,12,43,23.70
2006,06,27,12,44,23.70
2006,06,27,12,45,23.70
2006,06,27,12,46,23.60
2006,06,27,12,47,23.60
2006,06,27,12,48,23.50
2006,06,27,12,49,23.40
2006,06,27,12,50,23.40
2006,06,27,12,51,23.40
2006,06,27,12,52,23.40
2006,06,27,12,53,23.40
2006,06,27,12,54,23.50
2006,06,27,12,55,23.70
2006,06,27,12,56,23.80
2006,06,27,12,57,23.80
2006,06,27,12,58,23.80
2006,06,27,12,59,23.80
2006,06,27,13,00,23.80
2006,06,27,13,01,23.80
2006,06,27,13,02,23.80
2006,06,27,13,03,23.90
2006,06,27,13,04,23.90
2006,06,27,13,05,24.00
2006,06,27,13,06,24.20
2006,06,27,13,07,24.30
2006,06,27,13,08,24.30
2006,06,27,13,09,24.50
2006,06,27,13,10,24.60
2006,06,27,13,11,24.60
2006,06,27,13,12,24.70
2006,06,27,13,13,24.60
2006,06,27,13,14,24.70
2006,06,27,13,15,24.90
2006,06,27,13,16,25.00
2006,06,27,13,17,25.00
2006,06,27,13,18,24.90
2006,06,27,13,19,24.80
2006,06,27,13,20,24.90
2006,06,27,13,21,24.80
2006,06,27,13,22,24.80
2006,06,27,13,23,24.80
2006,06,27,13,24,24.70
2006,06,27,13,25,24.60
2006,06,27,13,26,24.60
2006,06,27,13,27,24.80
2006,06,27,13,28,24.90
2006,06,27,13,29,25.10
2006,06,27,13,30,25.30
2006,06,27,13,31,25.30
2006,06,27,13,32,25.30
2006,06,27,13,33,25.30
2006,06,27,13,34,25.30
2006,06,27,13,35,25.30
2006,06,27,13,36,25.40
2006,06,27,13,37,25.40
2006,06,27,13,38,25.40
2006,06,27,13,39,25.50
2006,06,27,13,40,25.50
2006,06,27,13,41,25.70
2006,06,27,13,42,25.90
2006,06,27,13,43,25.90
2006,06,27,13,44,25.80
2006,06,27,13,45,25.80
2006,06,27,13,46,25.70
2006,06,27,13,47,25.70
2006,06,27,13,48,25.60
2006,06,27,13,49,25.60
2006,06,27,13,50,25.50
2006,06,27,13,51,25.50
2006,06,27,13,52,25.50
2006,06,27,13,53,25.50
2006,06,27,13,54,25.60
2006,06,27,13,55,25.60
2006,06,27,13,56,25.60
2006,06,27,13,57,25.60
2006,06,27,13,58,25.60
2006,06,27,13,59,25.60
2006,06,27,14,00,25.50
2006,06,27,14,01,25.40
2006,06,27,14,02,25.40
2006,06,27,14,03,25.40
2006,06,27,14,04,25.50
2006,06,27,14,05,25.60
2006,06,27,14,06,25.70
2006,06,27,14,07,25.70
2006,06,27,14,08,25.70
2006,06,27,14,09,25.70
2006,06,27,14,10,25.70
2006,06,27,14,11,25.70
2006,06,27,14,12,25.70
2006,06,27,14,13,25.70
2006,06,27,14,14,25.80
2006,06,27,14,15,25.70
2006,06,27,14,16,25.70
2006,06,27,14,17,25.60
2006,06,27,14,18,25.60
2006,06,27,14,19,25.60
2006,06,27,14,20,25.70
2006,06,27,14,21,25.70
2006,06,27,14,22,25.70
2006,06,27,14,23,25.60
2006,06,27,14,24,25.60
2006,06,27,14,25,25.60
2006,06,27,14,26,25.70
2006,06,27,14,27,25.80
2006,06,27,14,28,25.90
2006,06,27,14,29,25.90
2006,06,27,14,30,25.90
2006,06,27,14,31,25.90
2006,06,27,14,32,25.90
2006,06,27,14,33,25.90
2006,06,27,14,34,26.00
2006,06,27,14,35,26.00
2006,06,27,14,36,26.00
2006,06,27,14,37,26.00
2006,06,27,14,38,26.00
2006,06,27,14,39,26.00
2006,06,27,14,40,26.00
2006,06,27,14,41,25.90
2006,06,27,14,42,25.90
2006,06,27,14,43,25.90
2006,06,27,14,44,25.80
2006,06,27,14,45,25.70
2006,06,27,14,46,25.70
2006,06,27,14,47,25.70
2006,06,27,14,48,25.70
2006,06,27,14,49,25.70
2006,06,27,14,50,25.70
2006,06,27,14,51,25.80
2006,06,27,14,52,25.70
2006,06,27,14,53,25.70
2006,06,27,14,54,25.70
2006,06,27,14,55,25.70
2006,06,27,14,56,25.80
2006,06,27,14,57,25.80
2006,06,27,14,58,25.80
2006,06,27,14,59,25.70
2006,06,27,15,00,25.70
2006,06,27,15,01,25.60
2006,06,27,15,02,25.60
2006,06,27,15,03,25.60
2006,06,27,15,04,25.60
2006,06,27,15,05,25.80
2006,06,27,15,06,25.80
2006,06,27,15,07,25.90
2006,06,27,15,08,25.90
2006,06,27,15,09,25.90
2006,06,27,15,10,26.00
2006,06,27,15,11,26.00
2006,06,27,15,12,26.10
2006,06,27,15,13,26.10
2006,06,27,15,14,26.20
2006,06,27,15,15,26.30
2006,06,27,15,16,26.40
2006,06,27,15,17,26.40
2006,06,27,15,18,26.60
2006,06,27,15,19,26.60
2006,06,27,15,20,26.60
2006,06,27,15,21,26.60
2006,06,27,15,22,26.60
2006,06,27,15,23,26.60
2006,06,27,15,24,26.60
2006,06,27,15,25,26.60
2006,06,27,15,26,26.60
2006,06,27,15,27,26.60
2006,06,27,15,28,26.60
2006,06,27,15,29,26.60
2006,06,27,15,30,26.60
2006,06,27,15,31,26.60
2006,06,27,15,32,26.40
2006,06,27,15,33,26.00
2006,06,27,15,34,26.00
2006,06,27,15,35,26.10
2006,06,27,15,36,26.20
2006,06,27,15,37,26.30
2006,06,27,15,38,26.30
2006,06,27,15,39,26.30
2006,06,27,15,40,26.00
2006,06,27,15,41,25.90
2006,06,27,15,42,25.80
2006,06,27,15,43,25.80
2006,06,27,15,44,25.70
2006,06,27,15,45,25.60
2006,06,27,15,46,25.50
2006,06,27,15,47,25.50
2006,06,27,15,48,25.50
2006,06,27,15,49,25.40
2006,06,27,15,50,25.40
2006,06,27,15,51,25.40
2006,06,27,15,52,25.40
2006,06,27,15,53,25.30
2006,06,27,15,54,25.40
2006,06,27,15,55,25.50
2006,06,27,15,56,25.50
2006,06,27,15,57,25.40
2006,06,27,15,58,25.30
2006,06,27,15,59,25.10
2006,06,27,16,00,25.00
2006,06,27,16,01,25.00
2006,06,27,16,02,25.00
2006,06,27,16,03,25.20
2006,06,27,16,04,25.40
2006,06,27,16,05,25.50
2006,06,27,16,06,25.80
2006,06,27,16,07,26.00
2006,06,27,16,08,26.20
2006,06,27,16,09,26.30
2006,06,27,16,10,26.40
2006,06,27,16,11,26.60
2006,06,27,16,12,26.80
2006,06,27,16,13,27.00
2006,06,27,16,14,27.10
2006,06,27,16,15,27.20
2006,06,27,16,16,27.30
2006,06,27,16,17,27.40
2006,06,27,16,18,27.50
2006,06,27,16,19,27.60
2006,06,27,16,20,27.60
2006,06,27,16,21,27.60
2006,06,27,16,22,27.50
2006,06,27,16,23,27.50
2006,06,27,16,24,27.60
2006,06,27,16,25,27.60
2006,06,27,16,26,27.70
2006,06,27,16,27,27.70
2006,06,27,16,28,27.70
2006,06,27,16,29,27.70
2006,06,27,16,30,27.70
2006,06,27,16,31,27.70
2006,06,27,16,32,27.70
2006,06,27,16,33,27.80
2006,06,27,16,34,27.90
2006,06,27,16,35,28.00
2006,06,27,16,36,28.00
2006,06,27,16,37,28.00
2006,06,27,16,38,28.10
2006,06,27,16,39,28.10
2006,06,27,16,40,28.20
2006,06,27,16,41,28.20
2006,06,27,16,42,28.10
2006,06,27,16,43,28.10
2006,06,27,16,44,28.00
2006,06,27,16,45,27.90
2006,06,27,16,46,27.80
2006,06,27,16,47,27.70
2006,06,27,16,48,27.70
2006,06,27,16,49,27.60
2006,06,27,16,50,27.60
2006,06,27,16,51,27.60
2006,06,27,16,52,27.60
2006,06,27,16,53,27.50
2006,06,27,16,54,27.40
2006,06,27,16,55,27.30
2006,06,27,16,56,27.30
2006,06,27,16,57,27.30
2006,06,27,16,58,27.30
2006,06,27,16,59,27.30
2006,06,27,17,00,27.30
2006,06,27,17,01,27.30
2006,06,27,17,02,27.30
2006,06,27,17,03,27.10
2006,06,27,17,04,27.00
2006,06,27,17,05,26.90
2006,06,27,17,06,26.80
2006,06,27,17,07,26.70
2006,06,27,17,08,26.60
2006,06,27,17,09,26.60
2006,06,27,17,10,26.50
2006,06,27,17,11,26.40
2006,06,27,17,12,26.40
2006,06,27,17,13,26.30
2006,06,27,17,14,26.30
2006,06,27,17,15,26.30
2006,06,27,17,16,26.20
2006,06,27,17,17,26.20
2006,06,27,17,18,26.10
2006,06,27,17,19,25.90